Regional Weather Roundup
Issued by NWS

Home | Current Version | Previous Version | Text Only | Print | Product List | Glossary Off
Versions: 1 2 3 4 5 6 7 8 9 10 11 12 13 14 15 16 17 18 19 20 21 22 23 24 25 26 27 28 29 30 31 32 33 34 35 36 37 38 39 40 41 42 43 44 45 46 47 48 49 50

000
ASUS43 KMKX 221720
RWRWI

WISCONSIN REGIONAL WEATHER ROUNDUP
NATIONAL WEATHER SERVICE MILWAUKEE/SULLIVAN WI
1200 PM CDT SUN APR 22 2018

NOTE: "FAIR" INDICATES FEW OR NO CLOUDS BELOW 12,000 FEET WITH NO
SIGNIFICANT WEATHER AND/OR OBSTRUCTIONS TO VISIBILITY.

WIZ001-002-006>008-014>016-023>028-221800-
NORTHWEST WISCONSIN

CITY           SKY/WX    TMP DP  RH WIND       PRES   REMARKS
SUPERIOR ARPT  FAIR      53  29  38 E5        30.34F
ASHLAND        FAIR      57  21  24 SE7       30.35F
HAYWARD        FAIR      57  30  35 S6        30.35F
SIREN          FAIR      59  30  32 S9        30.35F
CUMBERLAND     FAIR      50  27  40 CALM      30.37S
RICE LAKE      FAIR      55  28  36 S3        30.38S
CHETEK         FAIR      55  30  37 S6        30.37S
LADYSMITH      FAIR      57  29  34 S6        30.38F
EAU CLAIRE     FAIR      59  31  34 S8        30.36F
MENOMONIE      FAIR      59  31  34 S5        30.36F
NEW RICHMOND   FAIR      57  32  38 S6        30.36F
OSCEOLA        FAIR      57  32  39 SE6       30.39F
$$

WIZ003>005-009-010-017-018-221800-
NORTH CENTRAL WISCONSIN

CITY           SKY/WX    TMP DP  RH WIND       PRES   REMARKS
MANITOWISH WTR FAIR      52  21  30 SE6       30.35F
ARBOR VITAE    FAIR      57  23  27 SE9       30.36F
WOODRUFF       FAIR      57  23  27 SE9       30.36F
RHINELANDER    FAIR      58  22  24 VRB3      30.36F
EAGLE RIVER    FAIR      55  12  18 SW5       30.35F
LAND O LAKES   FAIR      58   8  13 SW6       30.36F
PHILLIPS       FAIR      56  28  34 SE7       30.35F
TOMAHAWK       FAIR      56  21  25 CALM      30.37F
MEDFORD        FAIR      52  29  41 S6        30.37F
MERRILL          N/A     57  29  35 S6        30.38F
$$

WIZ029-030-035-036-043>047-221800-
CENTRAL WISCONSIN

CITY           SKY/WX    TMP DP  RH WIND       PRES   REMARKS
WAUSAU         FAIR      56  27  32 CALM      30.36F
MOSINEE        MOSUNNY   55  28  35 SE5       30.40S
MARSHFIELD     FAIR      53  29  39 SE6       30.38S
STEVENS POINT  FAIR      51  28  40 SE3       30.40F
WAUPACA        FAIR      58  17  19 E5        30.40F
WAUTOMA        FAIR      55  21  26 E6        30.39F
WISC RAPIDS    FAIR      55  27  34 E8        30.39F
CAMP DOUGLAS   PTSUNNY   55  34  44 E6        30.37F
$$

WIZ011>013-019>022-031-037>040-048>050-221800-
NORTHEAST WISCONSIN

CITY           SKY/WX    TMP DP  RH WIND       PRES   REMARKS
ANTIGO         FAIR      54  32  43 SW6       30.38F
SHAWANO        FAIR      57  19  22 S6        30.40S
OCONTO         FAIR      54  18  24 SE7       30.41F
STURGEON BAY   FAIR      54  17  23 S6        30.42S
GREEN BAY      FAIR      53  20  27 S5        30.41S
MANITOWOC      FAIR      50  22  33 E7        30.42S
APPLETON       MOSUNNY   54  10  17 SE6       30.39S
CLINTONVILLE   FAIR      54  23  29 S3        30.41S
OSHKOSH        FAIR      54  28  36 NE7       30.40S
$$

WIZ032>034-041-042-053>061-221800-
SOUTHWEST WISCONSIN

CITY           SKY/WX    TMP DP  RH WIND       PRES   REMARKS
LA CROSSE      FAIR      61  28  28 E12       30.35F
SPARTA         FAIR      58  29  32 E9        30.37F
VIROQUA        FAIR      56  34  43 E13       30.34F
BOSCOBEL       FAIR      63  25  23 NE8       30.34F
PRAIRIE DU CHI FAIR      60  16  17 E12       30.32F
PLATTEVILLE    FAIR      58  30  34 E12G18    30.33F
$$

WIZ056-057-062-063-064-067-068-221800-
SOUTH CENTRAL WISCONSIN

CITY           SKY/WX    TMP DP  RH WIND       PRES   REMARKS
REEDSBURG      FAIR      56  22  26 E9        30.35F
BARABOO/DELLS  FAIR      54  22  28 E8        30.36F
LONE ROCK      FAIR      59  25  27 VRB7      30.34F
MINERAL POINT  FAIR      61  25  25 SE9       30.33F
MADISON        PTSUNNY   55  25  31 E7G16     30.35F
MIDDLETON      FAIR      57  19  23 E7        30.35F
WATERTOWN      FAIR      54  25  33 E7        30.36F
MONROE         FAIR      57  27  30 SE12      30.32F
JANESVILLE     PTSUNNY   63  25  23 E12G20    30.34F
$$

WIZ051-052-058>065-066-070>072-221800-
SOUTHEAST WISCONSIN

CITY           SKY/WX    TMP DP  RH WIND       PRES   REMARKS
MILWAUKEE      PTSUNNY   49  28  44 E8        30.40F
WAUKESHA       SUNNY     54  21  28 E7        30.38F
MILWAUKEE/TIMM SUNNY     52  14  22 E5        30.40F
RACINE         FAIR      51  29  42 VRB5      30.39F
BURLINGTON     FAIR      59  27  30 E14G21    30.35F
KENOSHA        FAIR      55  24  30 E12       30.37F
FOND DU LAC    FAIR      53  20  27 S6        30.38F
SHEBOYGAN      FAIR      54  27  35 E5        30.40S
WEST BEND      FAIR      55  21  26 SE7       30.38F
JUNEAU         FAIR      53  24  32 E5        30.39F
$$

LSZ147-162-221800-
LAKE SUPERIOR

STATION/POSITION TIME  TEMP    WIND        PRES    WAVE
                       AIR SEA DIR/SP/G            HT/PER
                 (UTC) (F)     (DEG/KT/KT) (MB)    (FT/S)
DEVILS ISLAND    1700   37     360/  3/  4 1029.0F
SAXON HARBOR     1630   42     360/  2/  4 1027.8F
$$

LMZ867-665-643>646-221800-
LAKE MICHIGAN

STATION/POSITION TIME  TEMP    WIND        PRES    WAVE
                       AIR SEA DIR/SP/G            HT/PER
                 (UTC) (F)     (DEG/KT/KT) (MB)    (FT/S)
NORTHPORT PIER   1640   40                 1030.1R
KEWAUNEE LAKESHO 1654   46     100/  2/  3 1029.3S
SHEBOYGAN LAKESH 1700   39      10/  4/  5 1030.0F
PORT WASHINGTON  1640   45      40/  4/  6 1030.5S
MILWAUKEE LAKESH 1700   39      40/  6/  7   N/A
KENOSHA   LAKESH 1700   39                 1028.4
$$

TC  - TEMPERATURE IN CELSIUS
VSB - VISIBILITY IN STATUTE MILES
WCI - WIND CHILL INDEX
HX  - HEAT INDEX





USA.gov is the U.S. government's official web portal to all federal, state and local government web resources and services.